Temp
14 14 14 15 15 15 16 15 14 14 14 14 14 14 14 14 14 14 14 15 16 17 16 16 16 16 16 15 15 16 16 16 16 16 15 15 15 15 15 15 15 15 15
14 15 14 15 15 15 15 14 14 14 14 14 14 13 13 14 14 14 14 15 15 15 15 15 16 16 15 15 15 15 15 15 15 15 15 15 15 15 15 15 15 15 15
15 15 15 14 15 15 14 14 14 14 14 14 13 13 14 14 14 14 14 15 15 15 16 16 16 15 15 15 15 15 15 14 14 14 14 14 14 14 14 14 14 14 14
15 15 15 14 14 14 15 14 14 14 13 13 12 12 13 13 13 13 14 14 14 15 15 15 15 15 15 15 14 15 14 14 13 13 13 13 13 13 13 13 13 13 13
15 15 15 14 14 14 14 14 13 14 13 11 11 11 11 11 12 12 13 13 13 14 15 16 15 14 14 14 14 13 13 12 12 12 11 11 11 11 11 11 11 12 11
14 15 15 14 14 14 14 13 14 12 12 11 10 10 10 10 11 11 11 12 12 12 13 14 14 14 13 13 13 12 12 11 11 11 11 11 10 10 10 10 10 10 10
14 14 14 14 14 14 14 13 13 12 9 10 11 8 8 8 9 9 10 10 11 11 12 12 12 13 12 12 11 11 11 11 10 10 10 10 9 9 9 9 9 9 9
14 14 14 14 14 14 13 13 13 10 9 10 11 9 8 7 7 7 8 9 9 10 11 11 11 10 10 10 10 10 10 10 10 9 9 9 9 9 9 8 8 8 8
13 14 14 14 13 13 13 13 14 14 10 9 10 10 9 11 5 5 5 6 8 8 8 9 9 10 10 9 9 8 8 9 9 9 9 9 8 8 8 8 7 7 7
13 13 14 14 13 13 13 13 13 14 13 11 10 10 11 9 9 6 3 4 5 6 6 7 8 8 8 8 8 7 7 7 8 8 8 8 8 8 7 7 7 7 7
12 13 13 13 13 13 13 13 12 12 13 13 12 10 10 9 9 7 5 3 4 4 5 6 6 7 7 7 7 6 6 6 6 6 6 6 6 7 7 6 6 6 6
11 12 12 12 12 12 12 12 12 12 12 13 12 12 12 11 8 6 4 2 3 2 3 4 4 5 5 6 6 5 5 5 5 5 5 5 5 5 5 5 6 5 5
10 10 11 11 12 11 11 11 11 11 11 12 11 11 12 12 12 10 6 2 3 1 1 2 3 4 4 4 4 4 4 4 3 4 4 3 3 3 4 4 4 4 4
8 9 11 9 10 9 9 9 9 10 10 10 11 11 11 11 11 11 10 4 2 1 0 0 1 2 3 3 3 3 2 3 2 2 2 2 2 2 3 3 3 3 2
7 7 7 9 8 9 8 8 8 9 9 10 10 10 10 10 10 10 10 10 7 4 3 -0 -0 1 2 2 2 2 2 1 1 1 2 2 1 1 1 1 1 1 1
7 6 6 6 7 8 8 7 7 8 8 8 9 9 9 10 9 9 9 9 9 7 2 -1 -0 0 1 1 1 1 1 1 0 0 0 0 0 0 0 0 -0 -0 -0
7 7 7 7 6 6 7 6 7 7 7 7 7 7 8 9 9 8 8 8 8 8 1 -2 -1 -1 -0 0 0 1 1 1 0 -1 -0 -1 -1 -0 -1 -1 -1 -1 -1
6 6 6 5 4 6 6 6 6 5 5 6 6 6 6 5 6 7 7 7 7 7 6 -1 -2 -1 -1 -1 -0 0 0 0 -0 -1 -1 -1 -1 -1 -1 -1 -1 -0 -1
5 4 5 4 5 4 3 3 3 4 5 5 5 5 6 5 5 5 6 6 6 6 6 3 -2 -1 -1 -1 -1 -1 -1 -1 -1 -1 -1 -1 -1 -1 -1 -1 -1 -1 -2
3 3 3 3 3 2 2 2 1 2 2 3 3 4 4 5 5 5 5 5 5 4 4 2 -1 -2 -2 -2 -1 -1 -2 -1 -1 -2 -2 -2 -1 -1 -1 -1 -1 -2 -2
1 1 1 1 1 1 1 1 1 1 1 2 2 2 3 3 4 4 4 4 4 4 2 -0 -2 -3 -3 -3 -2 -2 -2 -2 -2 -2 -2 -2 -1 -2 -2 -2 -2 -3 -3
0 0 -0 0 0 -0 -0 -0 -0 -0 0 1 1 1 2 1 2 2 2 3 3 4 2 -1 -2 -2 -2 -2 -2 -2 -2 -3 -2 -3 -2 -3 -2 -3 -3 -3 -3 -3 -4
-1 -1 -1 -1 -1 -2 -2 -2 -2 -1 -0 -0 -0 -1 -1 -0 1 1 1 1 1 1 2 2 1 -1 -2 -2 -2 -2 -2 -3 -3 -3 -3 -4 -3 -4 -4 -3 -3 -4 -4
-2 -2 -2 -2 -2 -2 -2 -2 -2 -2 -2 -1 -1 -2 -1 -1 -1 0 -0 -0 -0 -0 0 0 -0 -1 -1 -2 -2 -2 -3 -3 -4 -4 -4 -4 -5 -5 -4 -4 -4 -5 -5
-3 -3 -2 -2 -2 -2 -2 -3 -2 -2 -2 -3 -3 -3 -2 -2 -2 -1 -1 -1 -2 -2 -2 -2 -2 -2 -3 -3 -3 -3 -4 -4 -5 -5 -5 -6 -6 -6 -6 -5 -5 -5 -6
-3 -3 -3 -3 -2 -2 -3 -3 -3 -4 -4 -4 -4 -3 -3 -2 -2 -2 -1 -1 -2 -3 -3 -4 -4 -4 -4 -5 -4 -4 -4 -5 -5 -6 -6 -6 -6 -6 -6 -6 -6 -6 -5
Height
861 865 869 872 875 877 881 884 887 891 894 897 899 901 901 902 904 903 905 904 904 904 906 908 908 909 910 911 912 914 916 916 917 919 919 919 918 919 918 918 918 918 918
861 865 870 873 877 879 882 886 890 893 896 900 901 903 905 905 906 905 906 906 906 905 908 909 910 911 912 914 915 916 918 920 921 921 922 922 922 922 921 921 921 921 920
862 866 870 874 878 881 884 887 891 895 898 901 903 906 907 908 908 909 909 909 909 910 909 908 909 911 913 915 917 918 919 921 923 924 924 925 924 925 925 925 925 923 923
863 866 870 875 879 882 885 889 892 896 900 903 906 908 911 913 913 914 912 913 915 914 911 911 910 909 915 915 918 920 921 924 926 927 928 928 929 928 927 928 927 927 927
863 866 870 875 880 883 887 890 894 897 901 905 908 912 915 916 916 917 916 917 919 919 916 918 917 916 917 922 923 924 927 930 930 931 932 932 932 931 931 930 930 930 930
863 867 872 876 880 884 888 891 893 898 902 905 910 914 919 919 919 920 921 922 923 923 923 923 923 924 928 928 929 931 932 934 934 935 936 935 935 934 934 933 932 933 932
864 868 871 876 880 883 886 890 893 897 903 907 909 917 922 923 924 924 926 927 927 926 927 927 927 928 930 932 935 935 936 937 937 938 938 939 938 938 937 936 935 934 933
862 867 870 874 878 882 886 889 891 896 901 905 909 914 924 930 928 929 929 930 930 930 930 931 932 932 934 935 937 939 939 940 940 940 941 941 941 941 940 939 938 937 936
860 865 869 873 877 882 884 888 890 892 897 904 907 909 918 921 931 934 933 933 933 933 934 934 935 935 937 938 939 940 941 941 941 942 942 942 942 941 941 940 941 940 940
859 863 867 872 876 880 884 887 891 893 895 900 907 907 908 912 922 934 937 936 936 935 936 937 937 938 938 939 941 942 942 942 943 943 943 944 944 944 944 943 943 943 942
856 861 866 871 874 879 884 887 891 894 897 899 902 905 909 912 914 920 932 937 937 938 938 938 939 940 941 942 942 943 943 944 945 945 945 945 946 946 946 945 945 945 944
852 857 862 868 872 876 882 886 890 894 896 899 901 903 905 909 912 915 926 935 938 940 939 940 941 941 942 943 943 944 944 945 946 946 947 946 946 946 946 947 947 946 945
846 851 856 863 868 874 879 884 888 892 895 898 901 903 905 907 908 912 916 927 934 939 940 941 941 942 943 944 944 945 945 946 947 947 948 947 947 947 948 948 948 948 947
842 848 854 860 864 871 877 882 886 890 894 897 900 902 904 906 908 910 912 917 932 937 939 940 942 942 942 944 945 946 946 946 947 947 947 947 948 948 949 949 949 948 948
840 847 853 857 864 868 875 879 885 888 893 895 898 900 902 905 907 909 911 914 917 929 936 939 941 941 943 944 945 946 946 947 947 947 947 948 948 949 949 949 949 948 947
841 848 850 856 863 864 870 875 883 887 890 894 897 899 901 903 905 907 910 913 915 917 929 934 936 939 942 944 945 946 947 948 948 948 949 949 949 949 949 949 948 948 947
837 843 845 850 860 863 863 873 878 884 888 893 897 900 901 902 903 905 908 911 913 915 921 931 934 938 941 943 945 946 947 947 948 948 949 950 950 950 950 949 948 948 947
835 841 849 850 860 859 863 869 872 880 887 890 894 900 902 902 903 904 906 909 911 914 916 926 932 937 940 942 944 945 946 947 948 949 949 950 950 949 949 948 947 947 946
834 843 846 851 853 861 862 868 873 877 885 889 895 899 901 903 904 905 905 908 910 913 915 918 927 933 939 941 943 945 946 947 947 948 948 949 948 948 948 947 946 946 945
833 837 843 848 852 860 862 866 872 876 883 887 894 899 900 902 904 906 907 909 911 912 915 919 925 931 937 939 942 944 946 947 947 948 948 948 948 947 946 946 945 944 944
832 837 842 847 851 857 859 865 870 874 882 884 895 900 901 901 905 906 909 909 912 914 916 920 926 931 936 937 941 943 943 945 946 947 948 947 946 946 944 944 943 942 942
830 836 841 845 846 856 859 864 870 875 879 882 891 897 899 905 905 907 911 912 914 914 917 921 925 927 933 937 939 941 943 944 947 946 945 946 945 944 943 942 941 940 940
829 834 840 844 848 856 859 863 871 876 878 881 889 895 898 905 908 909 911 913 915 916 918 922 923 926 930 934 937 939 941 943 944 944 945 944 944 943 941 940 939 939 939
829 835 840 846 850 856 860 865 871 875 879 885 891 895 900 905 909 909 910 912 915 918 919 922 926 927 930 934 936 938 940 941 943 943 943 943 941 941 939 938 937 938 937
829 835 841 847 852 857 863 866 869 875 880 885 891 897 901 904 908 912 914 912 914 917 920 923 927 929 932 934 936 937 939 940 941 941 940 941 940 938 936 935 935 936 934
831 837 843 849 853 858 863 867 870 875 881 886 891 896 903 905 907 911 914 915 916 918 921 924 928 929 932 935 935 936 936 938 939 939 940 941 939 938 936 934 934 933 932
Wind_Speed
32 29 27 29 31 32 30 30 31 31 31 30 29 27 27 25 20 18 16 13 12 12 11 11 14 16 17 18 18 18 17 18 18 17 17 17 16 15 14 15 16 15 14
31 30 31 32 32 31 31 33 34 34 32 29 28 26 26 26 26 24 22 18 16 23 14 9 12 17 20 20 19 18 18 17 17 17 17 17 19 20 21 19 15 15 15
31 32 33 33 33 33 35 36 34 31 29 28 28 27 27 27 28 28 29 27 25 21 15 8 16 21 21 21 17 21 23 23 23 24 26 28 26 24 25 23 22 21 20
33 35 35 36 37 37 36 35 32 32 31 30 30 29 28 27 27 28 31 30 29 32 34 31 23 18 15 27 31 33 33 31 30 27 25 24 22 20 19 18 18 20 19
35 36 37 38 37 36 34 33 33 32 32 31 30 29 26 26 27 25 28 28 27 29 33 33 38 40 36 33 30 29 28 28 27 26 25 24 22 20 21 21 20 17 19
36 36 36 36 35 34 33 33 33 31 31 32 31 29 24 23 22 23 24 23 23 23 26 27 29 31 32 29 27 27 26 24 24 24 22 21 21 20 20 20 19 18 18
34 35 35 35 35 34 35 34 35 35 31 32 28 27 23 20 20 20 20 21 21 22 22 22 25 27 27 26 23 21 21 22 21 21 20 19 17 18 19 19 19 18 17
34 34 34 36 36 35 35 35 37 34 27 18 12 11 4 6 15 17 16 18 18 18 19 19 19 20 22 24 22 20 19 19 19 18 18 17 16 16 17 17 18 18 17
35 35 35 35 35 34 36 36 36 34 24 13 17 6 4 3 5 9 14 15 15 16 17 18 17 18 17 18 19 18 18 17 17 16 15 15 16 16 17 17 16 16 16
35 35 36 35 35 35 35 35 34 30 27 21 11 6 7 11 4 4 6 12 13 14 14 15 16 16 15 16 17 17 17 18 17 16 15 15 15 14 14 14 14 15 15
35 35 34 35 35 35 34 34 33 27 22 21 13 13 11 11 10 5 3 4 10 11 11 11 12 12 12 12 13 16 16 16 15 15 14 14 13 13 12 12 12 12 13
37 35 35 36 36 35 34 33 31 25 21 17 14 12 12 6 7 6 5 4 6 6 9 9 10 10 9 7 5 6 8 14 14 13 13 13 13 12 11 11 11 11 12
39 37 37 38 35 34 32 32 30 24 20 17 16 13 10 8 9 11 12 7 5 4 4 7 8 9 9 8 8 5 8 12 14 13 12 13 12 12 12 11 10 10 10
37 36 36 36 34 30 28 29 27 22 18 18 16 14 12 11 11 12 11 16 4 3 3 5 7 8 9 9 10 8 10 9 11 12 12 12 13 12 12 10 10 10 10
33 31 30 28 28 27 26 26 24 21 19 18 18 16 15 14 13 12 10 15 13 4 3 8 4 8 9 9 9 8 9 11 10 10 9 9 10 11 10 9 9 9 9
23 22 25 26 28 27 25 24 23 20 19 18 18 19 18 17 15 14 14 13 9 9 4 6 7 13 10 9 9 7 8 9 11 11 10 11 9 9 9 9 8 8 9
28 28 23 22 24 26 24 26 22 19 19 19 18 17 18 18 18 17 16 13 11 9 12 7 13 15 12 10 9 8 8 8 10 9 10 10 9 9 9 8 8 8 8
27 26 29 28 26 26 27 26 25 20 19 20 19 18 17 17 18 17 16 14 12 9 11 13 15 16 13 11 10 9 9 9 8 9 10 9 8 6 6 7 7 7 7
28 29 27 27 25 24 25 23 22 22 20 18 18 18 17 15 15 15 15 14 13 11 12 16 15 18 16 13 12 10 8 7 7 5 3 2 3 4 5 6 7 7 7
27 27 27 27 27 27 26 26 24 23 20 18 16 16 16 15 14 14 14 13 14 15 14 20 19 19 16 14 12 10 8 6 5 4 1 2 4 5 6 7 6 6 7
25 27 29 28 28 28 28 28 27 25 24 22 18 16 14 14 13 12 13 15 15 17 20 20 16 13 12 14 10 10 8 6 5 3 1 4 5 6 6 6 6 7 7
24 25 27 29 29 28 28 29 29 29 28 26 23 19 17 14 14 14 13 13 12 17 21 18 14 15 14 12 12 10 8 4 3 3 4 6 4 5 5 8 9 7 6
24 25 26 28 29 29 27 27 31 31 28 27 22 18 17 14 15 17 16 15 14 13 12 14 19 18 17 15 13 10 7 5 3 3 6 3 5 5 7 11 8 4 4
26 27 28 29 30 28 28 29 29 29 27 25 23 21 22 21 18 18 19 19 17 14 13 13 12 14 12 13 10 8 6 3 1 3 4 3 5 5 11 10 1 3 2
28 28 29 29 30 28 26 27 30 30 28 25 23 22 21 21 18 17 18 20 19 17 14 13 12 12 11 9 7 7 4 2 1 2 4 4 2 8 10 2 3 6 8
28 29 29 29 30 30 26 27 30 29 28 27 24 21 19 19 18 16 15 16 18 17 17 16 14 13 11 8 6 4 4 4 3 1 2 2 3 6 6 5 4 5 14
Wind_Direction
153 153 148 141 140 138 137 132 126 122 116 113 109 104 99 93 91 96 93 92 91 102 113 123 127 125 122 117 111 109 105 100 96 93 88 84 87 81 78 74 73 68 63
158 152 148 146 144 144 140 133 128 123 117 112 106 99 95 92 87 85 86 82 91 97 101 108 135 130 122 115 108 105 102 99 95 90 83 79 78 76 74 71 74 65 59
155 152 150 149 147 143 139 134 129 124 118 113 105 99 98 95 93 90 90 89 85 91 90 99 146 135 128 118 103 104 105 99 95 91 92 89 84 80 75 72 71 69 68
159 155 153 151 148 146 143 139 134 128 120 114 107 102 99 99 97 93 89 91 91 85 81 87 90 101 132 114 99 94 90 90 92 95 88 87 81 79 74 72 61 57 54
161 157 155 153 153 151 148 145 137 132 124 114 107 104 101 98 95 92 91 90 89 87 90 88 82 76 89 96 94 93 91 86 80 78 73 70 66 64 61 58 57 53 55
167 164 160 158 159 158 153 149 144 134 128 121 111 104 100 93 92 90 87 89 89 89 93 97 99 97 88 88 90 86 85 82 76 71 67 64 60 60 57 55 55 54 52
175 173 168 166 166 165 160 157 148 141 126 123 111 99 86 88 89 86 88 87 90 89 91 98 103 107 105 98 90 85 84 80 74 68 67 64 63 60 53 51 49 48 49
182 181 178 174 174 171 167 163 158 146 140 142 136 115 120 81 73 77 87 92 93 97 99 100 105 105 105 104 105 95 88 80 74 70 66 66 65 59 56 52 48 47 47
187 186 185 183 181 181 176 173 169 162 154 153 158 140 134 146 126 69 77 88 98 99 98 101 106 107 112 111 102 91 82 75 71 67 64 65 64 59 54 51 49 50 51
190 190 190 189 188 187 184 181 177 176 171 155 141 114 134 134 147 142 78 84 95 101 105 107 108 110 112 113 108 91 77 71 66 68 66 61 61 59 56 55 53 56 55
194 194 196 195 194 193 192 187 185 185 183 172 171 142 116 116 118 137 141 132 93 91 101 113 118 119 117 118 110 98 87 78 74 68 66 68 67 65 60 58 58 59 48
192 196 197 200 200 196 195 193 192 192 192 195 187 175 164 160 164 139 119 129 131 99 104 112 120 126 127 123 113 100 91 82 82 76 68 70 69 68 66 63 61 57 53
192 196 195 199 200 200 198 197 195 196 198 203 199 186 183 178 172 151 132 130 140 153 129 119 122 123 124 121 109 115 104 94 84 80 74 69 68 69 70 68 65 56 47
192 194 199 197 196 197 198 197 197 199 200 199 201 198 191 180 173 174 162 150 120 125 154 157 138 131 128 126 121 113 95 95 85 80 75 71 73 75 72 69 61 53 46
192 191 190 192 189 190 194 194 199 200 201 200 200 199 192 185 181 182 183 177 151 154 157 176 152 153 139 135 132 124 106 84 82 78 73 74 77 74 70 63 57 51 40
191 190 181 183 188 186 187 189 195 198 201 199 198 194 189 183 180 178 177 183 181 150 132 157 168 162 153 144 135 138 127 102 86 81 78 80 78 70 63 57 50 41 34
195 188 195 190 194 188 181 189 188 194 195 193 189 189 186 181 175 172 171 171 167 163 130 134 153 159 151 149 141 134 126 121 104 85 85 76 75 70 64 51 37 31 24
189 195 193 191 196 186 185 190 186 187 190 186 183 184 179 172 170 168 169 169 168 167 149 143 153 160 160 152 147 141 134 130 114 89 89 87 75 56 42 24 11 7 6
193 194 194 196 193 192 182 178 177 173 179 179 181 182 179 174 171 166 165 168 165 165 166 164 152 161 157 156 151 146 140 136 139 137 114 73 40 14 3 348 349 358 1
195 193 194 194 189 187 180 175 173 168 172 170 177 180 174 174 176 170 164 164 161 158 156 153 147 154 157 158 159 150 137 136 141 156 157 9 352 337 331 336 340 344 352
189 189 187 186 183 183 177 175 173 168 169 160 166 164 160 155 158 157 167 160 159 152 149 146 146 149 153 154 163 168 153 157 159 170 269 314 322 322 329 335 335 340 349
182 182 182 183 176 182 175 173 168 162 160 155 155 149 142 149 147 150 154 146 158 161 157 152 156 154 162 168 161 159 157 158 179 226 322 321 322 328 338 345 334 326 323
175 178 179 177 173 168 157 159 164 161 155 152 157 164 162 167 165 156 149 146 147 152 162 174 164 162 164 170 164 159 162 165 178 283 325 296 316 323 320 332 324 21 75
172 173 173 174 170 163 165 171 169 165 166 177 175 171 172 165 167 164 154 148 142 143 147 150 159 155 162 164 167 168 165 168 251 291 305 279 305 310 325 327 269 140 60
167 169 171 170 167 161 164 164 170 167 161 159 163 167 167 164 165 164 157 145 137 130 131 140 144 143 150 159 166 165 170 205 245 213 285 255 292 324 324 317 239 211 268
164 166 165 168 166 156 158 167 164 159 160 161 163 165 172 168 165 167 168 158 147 146 147 142 139 143 149 154 182 212 220 211 206 246 201 308 298 343 327 305 205 278 295